Temp
74 74 75 77 77 77 76 76 76 76 76 77 77 77 77 77 76 76 76 77 76 76 77 77 76 75 75 75 75 75 75 75 75 75 75 75 75 75 75 74 74 73 75
77 77 74 76 77 76 76 76 76 76 76 76 76 77 77 77 77 76 76 76 76 76 76 76 75 74 74 74 74 74 75 75 74 74 74 74 75 75 75 73 74 73 74
78 76 76 75 76 75 75 75 75 76 76 76 75 76 77 77 78 76 76 76 76 76 76 75 74 74 73 74 73 73 73 73 73 73 74 69 70 75 75 73 73 74 74
79 78 76 73 75 75 75 75 75 76 76 77 76 75 76 76 77 76 75 76 76 76 75 75 74 74 74 73 72 73 73 72 72 73 72 71 74 75 74 74 73 73 72
80 79 73 73 75 75 75 75 75 75 76 76 77 75 76 77 77 76 76 76 76 76 76 74 73 74 73 72 72 72 71 71 72 73 73 71 69 74 74 73 71 72 71
77 76 71 73 74 75 74 75 75 75 75 75 76 75 76 75 75 75 75 75 74 75 75 75 74 73 72 71 71 71 71 72 71 72 68 71 69 74 73 72 71 71 70
75 75 73 72 73 74 74 74 75 75 75 75 75 75 76 74 75 74 74 74 74 74 74 74 73 72 71 70 70 70 70 69 72 71 67 67 68 73 72 72 71 70 70
76 76 73 69 71 72 73 73 74 74 74 74 75 75 74 73 74 74 74 74 74 74 73 73 71 70 70 69 69 69 68 67 72 70 68 66 71 73 72 71 70 69 69
78 75 74 72 70 68 70 71 72 72 73 73 73 73 73 71 72 72 72 73 74 74 72 71 71 70 69 69 68 68 67 66 71 70 70 65 71 72 71 70 70 69 69
78 74 74 73 72 70 69 67 68 69 70 70 70 69 69 68 68 69 68 70 73 73 71 71 70 69 69 68 67 67 66 65 67 67 68 66 71 72 71 70 69 69 69
74 75 74 71 73 73 70 67 65 66 67 66 66 65 65 66 69 68 67 69 70 70 70 70 70 68 66 66 66 66 65 66 66 68 63 67 71 71 70 69 69 68 68
70 72 74 72 72 72 76 69 68 68 69 67 66 65 67 67 67 67 64 65 67 67 68 69 69 66 64 63 63 64 64 66 65 63 62 67 71 71 70 69 68 68 67
71 71 73 73 72 71 71 69 68 67 66 67 69 65 66 65 63 63 61 61 61 61 62 64 63 62 63 64 65 64 65 65 63 63 63 66 70 70 70 69 68 68 67
70 71 72 72 72 71 69 69 68 68 66 68 68 66 64 62 62 62 61 61 61 61 61 61 61 63 65 66 66 65 65 64 63 62 61 63 68 70 70 69 68 68 67
69 71 71 71 71 71 69 68 68 67 66 66 68 67 65 63 62 63 62 62 62 62 62 62 63 64 63 65 65 65 64 64 64 63 60 61 64 69 70 69 69 68 67
71 71 72 71 71 71 69 68 67 67 67 67 66 66 67 65 63 63 62 62 62 63 63 63 63 62 62 63 64 65 64 64 64 62 61 59 63 66 69 69 69 69 68
71 71 72 72 72 70 69 68 68 67 68 66 66 67 67 66 64 63 62 62 62 63 64 63 63 63 62 63 63 64 64 64 63 62 61 60 60 62 64 68 69 69 68
71 71 71 74 72 71 71 70 69 68 66 65 65 65 66 67 66 63 62 61 63 62 62 61 61 60 60 61 61 62 65 63 63 62 61 60 60 61 61 64 66 67 68
72 71 71 71 70 70 70 71 69 69 68 66 65 65 66 67 67 64 62 62 63 62 61 61 61 60 59 60 61 65 66 65 65 64 61 60 59 59 58 61 62 62 65
73 71 73 73 71 70 70 69 68 67 66 66 67 67 66 67 65 63 62 62 63 61 60 60 60 61 60 60 65 66 66 65 64 64 61 62 59 59 58 59 55 55 60
73 71 72 72 71 70 69 67 66 65 66 67 68 68 67 67 66 64 62 64 63 61 60 61 60 60 58 61 61 60 61 63 64 61 59 58 59 59 58 57 55 54 55
73 72 72 73 72 69 69 69 69 68 68 68 68 68 68 66 66 66 65 63 64 62 61 60 60 58 59 60 56 58 54 54 57 60 58 59 57 58 58 58 56 55 53
73 72 72 73 72 71 70 70 69 69 68 66 66 66 67 67 65 66 65 65 63 63 62 61 60 59 57 58 61 57 54 51 53 56 56 57 57 56 56 57 57 55 53
74 74 73 73 73 72 70 69 67 66 65 68 67 67 67 67 66 66 66 65 64 64 63 62 63 62 59 57 57 62 62 56 51 50 54 55 56 57 56 55 56 54 53
75 73 73 72 73 73 71 70 68 66 68 69 69 66 66 66 66 66 66 65 65 65 64 63 60 61 61 61 56 55 56 59 59 54 54 56 55 56 56 56 55 55 54
74 73 72 72 71 72 72 70 68 67 66 66 66 64 65 65 65 66 66 65 65 65 64 63 63 61 62 62 62 58 56 54 54 53 53 54 55 56 57 56 54 54 57
MSLP
1018.04 1018.32 1018.62 1018.86 1019.06 1019.13 1019.34 1019.70 1019.93 1020.03 1020.23 1020.39 1020.63 1020.71 1020.85 1020.89 1020.94 1021.03 1021.08 1021.19 1021.43 1021.37 1021.43 1021.62 1021.84 1021.94 1021.94 1021.92 1022.01 1022.13 1022.05 1021.96 1021.87 1021.83 1021.80 1021.80 1021.76 1021.72 1021.73 1021.75 1021.78 1021.71 1021.58
1017.74 1018.34 1018.69 1019.06 1019.25 1019.41 1019.61 1019.93 1020.20 1020.27 1020.44 1020.71 1020.96 1021.05 1021.18 1021.24 1021.30 1021.32 1021.45 1021.54 1021.77 1021.77 1021.91 1022.09 1022.23 1022.38 1022.40 1022.53 1022.59 1022.58 1022.53 1022.42 1022.27 1022.21 1022.16 1022.24 1022.13 1022.09 1022.19 1022.22 1022.13 1022.02 1021.95
1017.76 1018.54 1018.84 1019.23 1019.48 1019.73 1019.83 1020.05 1020.35 1020.49 1020.74 1020.99 1021.27 1021.45 1021.44 1021.50 1021.48 1021.61 1021.73 1021.85 1022.00 1022.15 1022.33 1022.55 1022.79 1022.83 1022.83 1022.88 1022.96 1023.02 1022.94 1022.83 1022.62 1022.42 1022.46 1022.52 1022.53 1022.46 1022.53 1022.58 1022.54 1022.48 1022.40
1017.84 1018.45 1018.99 1019.39 1019.64 1019.91 1020.21 1020.30 1020.55 1020.78 1021.05 1021.27 1021.44 1021.70 1021.77 1021.73 1021.74 1021.94 1022.04 1022.13 1022.31 1022.51 1022.69 1022.96 1023.14 1023.17 1023.14 1023.22 1023.31 1023.30 1023.22 1023.09 1022.86 1022.70 1022.59 1022.71 1022.71 1022.76 1022.84 1022.88 1023.00 1023.06 1023.16
1017.66 1018.39 1019.17 1019.56 1019.83 1020.02 1020.35 1020.56 1020.70 1021.00 1021.19 1021.35 1021.57 1021.87 1021.93 1021.93 1022.06 1022.22 1022.21 1022.42 1022.70 1022.76 1022.91 1023.22 1023.42 1023.48 1023.48 1023.53 1023.55 1023.49 1023.42 1023.33 1023.04 1022.76 1022.74 1022.96 1023.03 1023.13 1023.29 1023.49 1023.62 1023.61 1023.65
1018.04 1018.71 1019.49 1019.71 1019.94 1020.26 1020.49 1020.75 1020.97 1021.11 1021.31 1021.46 1021.77 1022.06 1022.08 1022.23 1022.40 1022.42 1022.51 1022.74 1023.10 1023.10 1023.27 1023.45 1023.63 1023.74 1023.81 1023.87 1023.87 1023.77 1023.65 1023.45 1023.36 1023.08 1023.32 1023.44 1023.56 1023.50 1023.72 1023.92 1024.06 1024.05 1023.97
1018.41 1018.91 1019.59 1019.93 1020.08 1020.33 1020.62 1020.88 1021.14 1021.30 1021.47 1021.69 1021.95 1022.20 1022.34 1022.51 1022.71 1022.74 1022.86 1023.03 1023.32 1023.53 1023.61 1023.79 1023.94 1024.09 1024.19 1024.24 1024.16 1023.96 1023.71 1023.68 1023.29 1023.46 1023.71 1023.95 1023.97 1023.94 1024.13 1024.29 1024.39 1024.34 1024.31
1018.40 1018.93 1019.56 1020.11 1020.20 1020.43 1020.70 1020.99 1021.22 1021.49 1021.64 1021.84 1022.20 1022.45 1022.74 1022.79 1022.97 1022.99 1023.10 1023.25 1023.55 1023.81 1023.93 1024.05 1024.25 1024.36 1024.44 1024.45 1024.33 1024.12 1024.01 1023.88 1023.59 1023.83 1024.13 1024.36 1024.20 1024.26 1024.38 1024.61 1024.76 1024.77 1024.75
1018.21 1018.81 1019.33 1020.07 1020.42 1020.53 1020.68 1021.01 1021.26 1021.52 1021.79 1021.83 1022.25 1022.65 1022.91 1023.04 1023.22 1023.34 1023.37 1023.47 1023.79 1023.97 1024.20 1024.39 1024.45 1024.52 1024.64 1024.66 1024.50 1024.22 1024.05 1024.04 1023.95 1024.16 1024.37 1024.64 1024.44 1024.57 1024.75 1024.91 1025.03 1025.10 1025.22
1017.94 1018.73 1019.20 1019.65 1020.33 1020.62 1020.85 1021.03 1021.33 1021.54 1021.86 1022.02 1022.34 1022.54 1023.02 1023.26 1023.40 1023.58 1023.67 1023.71 1023.74 1024.06 1024.33 1024.48 1024.62 1024.71 1024.82 1024.87 1024.73 1024.47 1024.25 1024.19 1024.20 1024.38 1024.58 1024.83 1024.69 1024.85 1025.17 1025.27 1025.42 1025.49 1025.49
1018.08 1018.43 1018.84 1019.46 1019.87 1020.31 1020.78 1021.20 1021.45 1021.67 1021.95 1022.25 1022.53 1022.84 1023.02 1023.30 1023.47 1023.64 1023.69 1023.83 1023.92 1024.14 1024.31 1024.39 1024.59 1024.78 1024.88 1024.89 1024.75 1024.63 1024.54 1024.31 1024.38 1024.63 1024.95 1025.01 1024.98 1025.12 1025.39 1025.51 1025.59 1025.64 1025.73
1018.04 1018.30 1018.46 1019.14 1019.52 1019.94 1020.25 1020.97 1021.48 1021.77 1021.90 1022.32 1022.62 1022.87 1022.87 1023.01 1023.25 1023.54 1023.71 1023.90 1024.11 1024.27 1024.37 1024.49 1024.65 1024.84 1024.90 1024.85 1024.72 1024.64 1024.64 1024.50 1024.55 1024.91 1025.20 1025.17 1025.17 1025.33 1025.50 1025.58 1025.71 1025.79 1025.90
1017.65 1018.09 1018.32 1018.65 1019.03 1019.59 1019.95 1020.62 1021.16 1021.58 1021.87 1022.05 1022.34 1022.66 1022.70 1022.97 1023.24 1023.52 1023.92 1024.05 1024.32 1024.49 1024.62 1024.72 1024.84 1024.83 1024.79 1024.66 1024.53 1024.59 1024.60 1024.56 1024.69 1024.91 1025.14 1025.23 1025.26 1025.28 1025.37 1025.56 1025.71 1025.89 1026.01
1017.42 1017.69 1018.06 1018.33 1018.85 1019.14 1019.60 1020.27 1020.71 1021.10 1021.48 1021.77 1022.11 1022.39 1022.45 1022.79 1023.14 1023.47 1023.83 1024.01 1024.17 1024.34 1024.49 1024.60 1024.71 1024.67 1024.48 1024.49 1024.48 1024.52 1024.56 1024.65 1024.74 1024.97 1025.08 1025.11 1025.09 1025.16 1025.32 1025.51 1025.72 1025.89 1025.84
1017.39 1017.50 1017.72 1018.05 1018.46 1018.93 1019.33 1019.84 1020.26 1020.59 1020.89 1021.26 1021.70 1021.95 1022.23 1022.61 1022.95 1023.14 1023.42 1023.67 1023.85 1023.97 1024.08 1024.13 1024.25 1024.31 1024.47 1024.49 1024.57 1024.62 1024.62 1024.70 1024.69 1024.84 1025.04 1025.05 1025.22 1025.26 1025.37 1025.51 1025.58 1025.73 1025.94
1016.88 1016.98 1017.33 1017.83 1018.08 1018.50 1019.05 1019.47 1019.85 1020.08 1020.30 1020.65 1021.08 1021.39 1021.71 1022.20 1022.59 1022.83 1023.01 1023.22 1023.50 1023.61 1023.70 1023.82 1023.95 1024.12 1024.25 1024.32 1024.43 1024.48 1024.56 1024.62 1024.65 1024.75 1024.92 1025.06 1025.07 1025.23 1025.29 1025.27 1025.39 1025.53 1025.72
1016.23 1016.37 1016.69 1017.26 1017.61 1018.07 1018.55 1019.04 1019.37 1019.62 1019.93 1020.19 1020.42 1020.78 1021.15 1021.49 1021.93 1022.36 1022.72 1022.95 1023.09 1023.19 1023.41 1023.58 1023.68 1023.80 1024.07 1024.10 1024.22 1024.22 1024.41 1024.51 1024.62 1024.68 1024.79 1024.91 1024.92 1024.96 1025.04 1025.08 1025.20 1025.27 1025.39
1015.36 1015.87 1015.90 1016.63 1017.20 1017.80 1018.00 1018.42 1018.79 1019.10 1019.43 1019.71 1020.02 1020.27 1020.70 1021.13 1021.38 1021.87 1022.38 1022.69 1022.81 1022.96 1023.11 1023.36 1023.60 1023.86 1023.96 1024.00 1024.02 1024.00 1023.94 1024.14 1024.27 1024.44 1024.62 1024.69 1024.64 1024.60 1024.71 1024.84 1025.00 1025.08 1025.06
1014.46 1015.16 1015.31 1015.78 1016.54 1017.14 1017.55 1017.85 1018.18 1018.47 1018.88 1019.22 1019.54 1019.93 1020.23 1020.59 1020.98 1021.42 1021.88 1022.16 1022.39 1022.70 1022.90 1023.08 1023.39 1023.55 1023.71 1023.74 1023.72 1023.58 1023.46 1023.67 1023.74 1023.96 1024.19 1024.29 1024.33 1024.38 1024.41 1024.50 1024.59 1024.63 1024.60
1013.73 1014.31 1014.85 1014.97 1015.65 1016.43 1017.06 1017.50 1017.85 1018.21 1018.39 1018.64 1018.91 1019.21 1019.63 1020.06 1020.48 1020.89 1021.28 1021.64 1021.82 1022.25 1022.62 1022.77 1023.01 1023.09 1023.24 1023.41 1023.37 1023.27 1023.35 1023.31 1023.42 1023.52 1023.68 1023.67 1023.71 1023.87 1024.07 1024.15 1024.25 1024.25 1024.26
1012.41 1013.36 1013.97 1014.36 1014.67 1015.59 1016.16 1016.67 1017.21 1017.42 1017.87 1018.13 1018.17 1018.43 1018.85 1019.32 1019.81 1020.28 1020.66 1020.98 1021.32 1021.81 1022.10 1022.34 1022.62 1022.86 1023.01 1023.06 1023.26 1023.37 1023.35 1023.27 1023.20 1023.02 1023.12 1023.15 1023.27 1023.36 1023.55 1023.66 1023.67 1023.78 1023.95
1010.99 1011.90 1012.91 1013.29 1013.86 1014.48 1015.16 1015.51 1016.07 1016.57 1016.93 1017.34 1017.61 1017.81 1018.00 1018.42 1018.87 1019.40 1019.87 1020.26 1020.52 1021.11 1021.53 1021.78 1022.00 1022.47 1022.65 1022.71 1023.19 1023.46 1023.58 1023.17 1022.80 1022.60 1022.71 1022.74 1022.88 1022.89 1022.97 1022.95 1022.98 1023.20 1023.54
1009.92 1010.51 1011.23 1011.89 1012.67 1013.19 1013.90 1014.83 1015.51 1016.04 1016.45 1016.75 1016.87 1017.13 1017.15 1017.43 1018.01 1018.42 1018.98 1019.38 1019.72 1020.11 1020.69 1021.03 1021.35 1021.69 1022.09 1022.29 1022.30 1022.68 1023.02 1023.05 1022.52 1022.05 1022.33 1022.36 1022.47 1022.58 1022.39 1022.28 1022.31 1022.63 1022.99
1008.68 1009.25 1009.76 1010.67 1011.48 1012.19 1012.99 1013.46 1013.76 1014.16 1014.58 1014.70 1015.39 1015.95 1016.39 1016.69 1017.01 1017.53 1017.95 1018.46 1018.92 1019.23 1019.75 1020.00 1020.36 1020.80 1021.36 1021.68 1022.07 1021.84 1021.99 1022.36 1022.65 1022.57 1022.26 1022.14 1022.05 1022.13 1021.99 1021.83 1021.85 1022.11 1022.30
1007.69 1008.21 1008.86 1009.51 1010.24 1011.02 1011.83 1012.14 1012.56 1013.03 1013.24 1013.87 1014.46 1014.97 1015.56 1015.95 1016.14 1016.51 1016.97 1017.51 1018.02 1018.24 1018.63 1019.06 1019.47 1019.95 1020.33 1020.83 1021.05 1021.49 1021.62 1021.66 1022.02 1022.50 1021.88 1021.68 1021.79 1021.58 1021.53 1021.34 1021.20 1021.39 1021.50
1006.85 1007.36 1007.96 1008.52 1009.12 1009.86 1010.62 1011.29 1011.58 1011.82 1012.34 1013.05 1013.47 1013.87 1014.30 1014.78 1015.15 1015.49 1015.99 1016.40 1016.71 1017.19 1017.59 1017.96 1018.57 1019.07 1019.45 1019.85 1020.07 1020.31 1020.45 1020.65 1020.91 1021.43 1021.57 1021.07 1021.26 1020.98 1020.80 1020.59 1020.67 1020.75 1020.46
Wind_Speed
10 8 9 11 12 14 17 15 15 14 15 15 14 14 13 14 14 14 16 17 15 16 18 18 17 17 18 19 18 17 17 17 16 16 16 15 15 16 17 18 14 9 14
13 11 10 12 12 15 15 14 12 12 13 13 12 12 13 14 13 13 15 17 16 16 17 17 17 17 17 17 16 15 15 14 11 8 14 14 14 16 17 16 13 12 19
14 11 10 11 12 13 12 13 11 12 13 12 13 10 12 12 12 14 15 15 16 15 16 16 16 16 16 16 15 13 10 9 9 13 9 6 6 15 17 19 21 22 22
14 11 10 11 13 12 11 12 12 11 10 10 11 11 9 10 12 12 15 16 15 14 16 16 15 15 15 14 12 11 10 10 11 6 4 5 7 12 17 19 19 20 19
12 10 12 12 12 13 12 11 13 12 10 11 11 11 9 10 12 8 13 15 13 14 15 15 14 14 13 12 10 8 6 6 3 4 5 7 6 14 18 18 16 16 15
12 12 10 11 12 12 11 12 12 12 10 12 12 11 11 11 9 9 13 17 12 12 14 13 13 12 11 9 8 7 7 8 9 6 9 10 8 18 17 15 13 13 12
10 11 9 9 11 11 12 12 12 11 11 12 11 11 10 10 10 7 12 16 12 12 12 12 11 11 10 8 7 6 7 11 7 8 7 7 6 16 16 14 12 13 13
7 10 10 7 9 10 11 11 11 12 12 14 10 10 10 9 9 6 12 15 11 11 11 11 10 9 8 7 5 5 6 8 10 7 8 5 11 13 14 13 12 12 13
7 10 11 7 6 8 11 11 11 11 10 15 11 11 9 8 8 8 7 10 12 10 10 9 9 9 7 6 4 5 7 7 8 5 7 3 11 12 12 11 11 12 12
8 10 8 9 8 6 5 10 10 11 11 11 12 12 10 9 9 7 7 8 11 11 10 9 8 7 6 4 2 5 10 9 5 6 6 3 10 10 11 11 11 12 11
7 6 8 8 8 9 7 6 9 11 10 9 10 10 10 4 5 6 5 9 10 9 9 9 8 7 6 3 2 5 7 3 5 4 4 4 8 10 9 10 10 10 10
8 7 7 10 8 8 8 9 6 6 7 6 6 6 5 8 7 6 6 8 8 7 6 6 7 7 6 3 3 4 1 2 3 4 3 5 7 8 8 7 8 8 8
9 6 7 7 7 10 6 6 4 4 4 5 8 6 5 5 4 4 3 3 4 5 3 4 3 4 5 4 2 2 1 1 2 3 4 4 6 6 6 5 7 7 7
8 8 8 8 6 7 5 6 5 5 4 4 5 7 4 3 5 4 4 5 4 4 5 5 4 5 2 3 1 2 0 1 2 3 4 6 7 7 5 5 5 5 6
9 9 9 8 8 6 6 5 5 6 5 6 6 6 5 4 5 4 5 5 5 5 4 4 4 3 4 4 3 3 3 0 1 1 2 7 5 5 4 3 4 4 4
9 11 10 10 8 8 6 7 5 5 6 6 6 6 7 5 5 4 4 5 4 4 4 5 4 5 4 4 4 4 4 4 3 2 1 3 7 5 6 6 5 5 5
12 8 12 12 9 8 9 7 5 5 5 5 5 8 9 7 7 6 5 4 5 5 6 4 3 3 3 3 5 5 3 4 3 4 3 2 5 8 9 10 8 7 7
12 13 9 11 11 10 10 8 6 5 5 5 5 5 8 7 7 6 5 5 5 4 4 3 3 3 4 4 4 4 4 5 6 5 4 4 4 4 8 11 11 10 10
13 14 12 12 13 12 9 9 7 7 6 5 5 5 7 8 7 6 5 5 6 4 4 4 4 4 4 4 4 4 4 4 4 4 6 6 6 5 3 9 12 12 13
16 15 14 13 15 14 9 7 6 6 5 6 7 7 8 8 8 6 5 6 6 5 5 4 5 4 4 4 4 4 4 4 4 4 6 6 6 6 6 6 5 6 12
17 17 18 16 16 13 11 11 10 11 8 8 8 11 11 10 10 8 5 7 6 6 6 6 5 6 5 3 1 1 2 4 6 6 5 5 5 6 6 6 5 5 4
18 19 18 18 18 15 12 11 10 10 9 9 8 9 11 11 12 11 10 7 8 6 7 7 6 4 4 5 4 1 3 4 6 8 5 5 7 5 6 8 7 6 5
18 18 19 20 19 18 18 10 9 8 7 9 10 10 11 13 12 12 12 10 8 8 8 7 7 8 5 4 7 5 3 5 2 2 6 5 6 5 5 6 7 7 6
19 19 21 19 19 19 20 16 19 14 14 13 11 10 11 14 13 13 13 13 10 8 9 10 8 7 6 6 2 7 8 2 1 4 2 3 5 7 7 5 5 6 7
16 19 18 19 19 20 20 19 15 16 14 11 10 13 13 13 15 15 15 13 13 10 11 11 7 11 8 8 4 3 5 6 6 4 8 4 3 4 5 5 6 5 7
12 16 17 19 20 20 20 21 20 20 17 12 13 12 12 10 12 16 16 15 15 13 13 11 11 9 11 9 8 6 6 5 6 6 8 9 8 6 6 6 5 5 7
Wind_Direction
115 121 121 118 120 120 112 107 102 97 96 94 92 92 93 89 85 87 96 90 83 78 83 85 86 86 83 81 78 77 78 72 78 78 68 70 71 65 56 50 54 50 49
123 123 126 124 123 118 115 115 111 107 101 99 93 95 103 100 91 91 99 91 88 88 87 89 88 86 83 80 84 83 84 84 42 56 92 65 64 65 58 46 49 53 59
118 124 127 124 120 118 114 105 103 103 99 98 101 97 108 101 98 85 98 96 94 92 93 92 90 88 88 86 83 82 69 44 12 44 45 95 66 66 59 65 64 59 59
124 140 131 129 130 126 116 113 110 105 110 112 106 106 110 105 106 91 106 97 98 100 97 98 95 90 88 86 86 80 59 26 2 60 49 40 80 66 76 66 60 58 54
128 126 125 134 136 131 127 125 119 117 118 117 113 110 119 106 104 102 104 101 102 105 106 96 96 94 91 88 83 70 43 10 25 6 63 56 65 84 72 64 58 57 55
109 114 130 139 139 137 133 129 127 127 125 118 110 113 118 100 105 103 106 102 102 112 103 106 97 95 88 81 67 41 13 354 326 55 67 70 75 82 73 66 55 55 58
118 125 134 141 142 145 144 137 134 132 123 112 119 120 125 104 104 95 106 109 113 107 107 106 101 91 81 70 55 26 352 0 57 51 71 68 81 77 72 63 61 63 65
141 144 133 143 145 146 147 145 143 138 134 119 125 123 130 117 120 102 116 117 118 118 113 109 102 94 85 71 51 15 5 358 69 59 73 64 82 78 72 68 67 67 69
178 130 140 155 155 149 147 151 150 145 142 131 130 131 133 109 103 111 79 111 121 129 116 115 113 105 94 76 41 352 346 7 89 70 83 67 80 71 70 74 70 69 68
147 142 154 155 153 156 154 151 154 149 145 134 130 132 134 107 106 108 115 120 139 131 136 131 126 119 103 82 9 331 339 334 100 87 72 82 83 74 74 72 70 68 72
145 179 160 146 164 162 158 150 150 150 141 127 124 135 140 136 159 160 161 143 123 135 144 152 148 138 141 154 268 303 322 11 78 89 72 50 87 82 78 78 78 76 75
164 187 168 161 176 167 160 146 157 160 152 152 147 174 182 163 154 163 129 135 141 142 147 159 162 177 188 196 216 280 6 16 67 97 79 43 97 92 92 95 91 87 85
172 175 183 170 179 163 167 158 162 159 170 165 158 193 224 124 141 143 143 145 145 165 175 161 178 213 229 224 183 117 140 16 103 94 106 81 120 124 131 124 114 105 98
185 175 181 178 183 171 142 160 166 165 166 156 167 203 195 145 156 175 161 181 174 180 206 190 198 225 207 276 104 131 55 7 90 113 139 157 171 175 165 141 131 126 145
206 201 179 187 179 173 159 166 182 173 164 167 182 192 173 185 173 197 175 180 184 181 210 195 199 180 223 200 199 220 187 155 120 87 162 174 224 219 198 183 178 180 175
216 193 184 188 183 173 176 173 189 177 172 171 181 178 185 184 176 197 192 180 187 190 206 199 198 195 204 184 208 221 216 201 199 134 115 195 195 238 228 231 221 219 213
214 207 190 184 185 182 176 182 187 181 174 187 183 175 183 192 177 188 191 186 194 193 202 207 220 190 196 198 211 201 213 229 225 190 214 222 205 209 224 240 240 237 235
194 208 186 183 188 189 186 188 189 179 186 183 185 172 178 198 186 185 181 187 200 191 189 185 197 206 218 210 207 216 191 205 214 219 211 225 235 217 222 223 230 236 237
201 200 203 182 188 191 195 190 189 186 189 184 176 181 186 188 200 174 185 190 194 188 186 194 211 184 202 227 214 230 225 216 224 203 217 224 227 233 225 220 219 221 229
199 196 215 190 189 191 194 191 189 197 189 183 191 189 182 189 190 192 185 193 184 180 196 197 197 212 194 202 213 234 239 237 234 236 221 221 224 214 221 230 211 221 225
187 196 210 197 192 185 195 193 195 201 197 197 199 194 187 186 192 195 191 190 184 183 195 198 196 205 226 211 141 239 275 249 244 230 215 215 241 225 211 213 214 210 217
189 192 202 206 195 190 199 199 200 197 198 202 204 198 189 186 191 196 195 198 188 185 196 203 190 194 209 188 176 214 275 290 252 238 215 217 227 226 219 217 218 213 204
198 190 198 206 201 196 197 193 196 199 199 197 202 203 199 192 194 193 194 200 197 186 199 201 197 190 197 209 195 171 207 233 248 234 215 211 220 227 231 224 221 206 197
203 199 199 202 205 205 196 195 196 197 200 204 201 199 203 200 196 198 196 199 202 197 197 203 200 201 176 197 193 215 227 166 264 320 332 234 222 226 233 232 224 209 202
205 201 201 202 207 206 203 204 198 201 207 201 198 196 198 201 201 200 201 198 203 204 206 201 192 201 196 203 179 162 221 228 228 241 275 230 236 232 245 229 217 207 208
218 201 200 202 208 208 207 205 204 206 201 202 201 196 199 199 200 203 202 203 206 207 207 201 204 197 202 207 211 200 188 181 199 202 237 253 251 235 227 238 220 216 220